Regional Weather Roundup
Issued by NWS

Home | Current Version | Previous Version | Graphics & Text | Print | Product List | Glossary On
Versions: 1 2 3 4 5 6 7 8 9 10 11 12 13 14 15 16 17 18 19 20 21 22 23 24 25 26 27 28 29 30 31 32 33 34 35 36 37 38 39 40 41 42 43 44 45 46 47 48 49 50
000
ASUS45 KSLC 260310
RWRUT

UTAH REGIONAL WEATHER ROUNDUP
NATIONAL WEATHER SERVICE SALT LAKE CITY UT
900 PM MDT MON MAY 25 2015

UTZ001>011-023>025-260400-

NORTHERN UTAH

CITY           SKY/WX    TMP DP  RH WIND       PRES   REMARKS
BRIGHAM CITY   MOCLDY    59  48  68 NW3       29.96R
HILL AFB       MOCLDY    61  44  52 E5        29.96S
LOGAN          CLEAR     53  50  89 E7        29.97S
OGDEN          MOCLDY    60  46  59 NW6       29.94S
PROVO AIRPORT  PTCLDY    59  46  63 CALM      29.97R
SALT LAKE CITY CLOUDY    66  44  45 N3        29.94R
VERNAL         PTCLDY    52  47  83 W3        29.99S
WENDOVER       CLOUDY    59  45  58 E6        29.96R
HEBER CITY     CLOUDY    55  41  58 NW7       29.99R
WEST JORDAN    MOCLDY    63  48  59 SW5       29.97R

$$

UTZ012>022-026-027-260400-

SOUTHERN/CENTRAL UTAH

CITY           SKY/WX    TMP DP  RH WIND       PRES   REMARKS
BLANDING       PTCLDY    52  47  83 CALM      30.10S
BRYCE CANYON   MOCLDY    53  34  48 NW5       30.11R
CEDAR CITY     PTCLDY    57  46  66 SW6       29.99S
DELTA          PTCLDY    63  43  48 E3        29.94S
HANKSVILLE     CLOUDY    64  41  42 S5        29.96R
MILFORD        PTCLDY    62  45  53 S5        29.95R
MOAB/CYNLANDS  CLEAR     63  42  46 SE5       29.93R
PRICE          CLEAR     54  41  61 NE5       30.01R
ST GEORGE      CLOUDY    77  39  25 W7        29.89R
KANAB          MOCLDY    63  41  45 CALM      30.02R

$$

REGIONAL REPORTS     COLORADO/ARIZONA

CITY           SKY/WX    TMP DP  RH WIND       PRES   REMARKS
CRAIG, CO      CLOUDY   N/A N/A N/A CALM      30.04R
GRAND JUNCTION PTCLDY    57  45  64 N6        29.96R
RIFLE          CLOUDY    56  44  64 NW5       30.02R
MONTROSE       MOCLDY    55  42  61 SE9       30.05R
CORTEZ         MOCLDY    51  45  79 CALM      30.06R
PAGE, AZ       PTCLDY    69  43  38 S3        29.94R
GRAND CANYON   CLEAR     52  43  71 CALM      30.10R
KINGMAN        CLEAR     73  37  27 SW8       29.93R
FLAGSTAFF      MOCLDY    49  44  83 CALM      30.14R

$$

REGIONAL REPORTS    NEVADA/IDAHO/WYOMING

CITY           SKY/WX    TMP DP  RH WIND       PRES   REMARKS
LAS VEGAS, NV  PTCLDY    85  42  22 SE7       29.77R
ELY            MOCLDY    54  40  59 CALM      30.02R
ELKO           MOCLDY    55  45  68 E5        30.00R
POCATELLO, ID  MOCLDY    55  49  80 E15       29.95R
BURLEY         MOCLDY    59  45  59 S12       29.90R
EVANSTON, WY   CLOUDY    45  42  89 SE7       30.06F
ROCK SPRINGS   PTCLDY    47  42  83 NW3       30.05R
KEMMERER       PTCLDY    43  37  81 W6        30.07S

$$



USA.gov is the U.S. government's official web portal to all federal, state and local government web resources and services.